Tracking 31032 objects as of 13-Jul-2025
HD Live streaming from Space Station
objects crossing your sky now

CZ-6A DEB

Track CZ-6A DEB now!
10-day predictions


NORAD ID: 54392
Int'l Code: 2022-151DQ
Perigee: 713.0 km
Apogee: 841.9 km
Inclination: 98.6 °
Period: 100.2 minutes
Semi major axis: 7148 km
RCS: Unknown
Launch date: November 11, 2022
Source: People's Republic of China (PRC)
Launch site: Taiyaun Space Center, China (TSC)

Note: This is SATELLITE DEBRIS
Your satellite tracking list
Your tracking list is empty




NASA's NSSDC Master Catalog

Two Line Element Set (TLE):
1 54392U 22151DQ  25194.01912881  .00000908  00000-0  31090-3 0  9998
2 54392  98.6087 211.0967 0090170 313.0774  46.2889 14.36441461139285
Source of the keplerian elements: AFSPC